EN

Hourly Weather Trzcianka

Today, 20 April, Tuesday

Time Temperature Precipitation Wind Pressure Humidity
00:00 +7°C° 0 mm 2 mps 746 mmHg 78%
01:00 +6°C° 0 mm 2 mps 746 mmHg 80%
02:00 +7°C° 0 mm 1 mps 746 mmHg 81%
03:00 +6°C° 0 mm 1 mps 745 mmHg 82%
04:00 +6°C° 0 mm 1 mps 745 mmHg 83%
05:00 +6°C° 0 mm 1 mps 745 mmHg 84%
06:00 +7°C° 0 mm 1 mps 745 mmHg 79%
07:00 +9°C° 0 mm 1 mps 745 mmHg 74%
08:00 +10°C° 0 mm 1 mps 745 mmHg 69%
09:00 +10°C° 0.1 mm 2 mps 744 mmHg 64%
10:00 +13°C° 0.1 mm 2 mps 744 mmHg 59%
11:00 +14°C° 0.1 mm 2 mps 743 mmHg 54%
12:00 +13°C° 0.1 mm 3 mps 743 mmHg 52%
13:00 +13°C° 0.1 mm 3 mps 743 mmHg 50%
14:00 +14°C° 0.1 mm 3 mps 742 mmHg 48%
15:00 +13°C° 0 mm 3 mps 742 mmHg 50%
16:00 +13°C° 0 mm 3 mps 742 mmHg 52%
17:00 +13°C° 0 mm 3 mps 741 mmHg 54%
18:00 +11°C° 0 mm 3 mps 741 mmHg 61%
19:00 +10°C° 0 mm 2 mps 741 mmHg 67%
20:00 +8°C° 0 mm 2 mps 741 mmHg 73%
21:00 +9°C° 0 mm 1 mps 741 mmHg 75%
22:00 +8°C° 0 mm 1 mps 741 mmHg 78%
23:00 +8°C° 0 mm 1 mps 740 mmHg 80%

Tomorrow, 21 April, Wednesday

Time Temperature Precipitation Wind Pressure Humidity
00:00 +7°C° 0 mm 1 mps 740 mmHg 82%
01:00 +7°C° 0 mm 1 mps 740 mmHg 83%
02:00 +7°C° 0 mm 1 mps 740 mmHg 85%
03:00 +5°C° 0 mm 2 mps 740 mmHg 85%
04:00 +5°C° 0 mm 2 mps 739 mmHg 86%
05:00 +5°C° 0 mm 2 mps 739 mmHg 87%
06:00 +5°C° 0 mm 3 mps 739 mmHg 81%
07:00 +7°C° 0 mm 3 mps 739 mmHg 76%
08:00 +8°C° 0 mm 3 mps 739 mmHg 70%
09:00 +10°C° 0 mm 3 mps 739 mmHg 63%
10:00 +11°C° 0 mm 3 mps 739 mmHg 56%
11:00 +12°C° 0 mm 4 mps 739 mmHg 49%
12:00 +13°C° 0 mm 4 mps 739 mmHg 47%
13:00 +13°C° 0 mm 4 mps 739 mmHg 44%
14:00 +14°C° 0 mm 4 mps 738 mmHg 42%
15:00 +14°C° 0 mm 4 mps 738 mmHg 45%
16:00 +13°C° 0 mm 4 mps 738 mmHg 47%
17:00 +13°C° 0 mm 4 mps 738 mmHg 50%
18:00 +11°C° 0 mm 3 mps 738 mmHg 57%
19:00 +9°C° 0 mm 3 mps 738 mmHg 64%
20:00 +8°C° 0 mm 2 mps 738 mmHg 71%
21:00 +7°C° 0 mm 2 mps 738 mmHg 73%
22:00 +6°C° 0 mm 2 mps 738 mmHg 75%
23:00 +5°C° 0 mm 2 mps 739 mmHg 78%

Day after tomorrow, 22 April, Thursday

Time Temperature Precipitation Wind Pressure Humidity
00:00 +5°C° 0 mm 2 mps 738 mmHg 80%
01:00 +6°C° 0 mm 1 mps 738 mmHg 82%
02:00 +6°C° 0 mm 1 mps 738 mmHg 85%
03:00 +5°C° 0.2 mm 2 mps 738 mmHg 88%
04:00 +3°C° 0.2 mm 3 mps 738 mmHg 91%
05:00 +1°C° 0.2 mm 4 mps 738 mmHg 94%
06:00 +3°C° 0.2 mm 4 mps 738 mmHg 87%
07:00 +2°C° 0.2 mm 5 mps 739 mmHg 81%
08:00 +3°C° 0.2 mm 5 mps 739 mmHg 74%
09:00 +3°C° 0 mm 6 mps 739 mmHg 67%
10:00 +4°C° 0 mm 6 mps 739 mmHg 60%
11:00 +5°C° 0 mm 6 mps 739 mmHg 52%
12:00 +5°C° 0 mm 6 mps 739 mmHg 53%
13:00 +5°C° 0 mm 6 mps 739 mmHg 53%
14:00 +7°C° 0 mm 6 mps 740 mmHg 53%
15:00 +5°C° 0.1 mm 6 mps 740 mmHg 55%
16:00 +5°C° 0.1 mm 6 mps 740 mmHg 57%
17:00 +5°C° 0.1 mm 6 mps 740 mmHg 59%
18:00 +4°C° 0.1 mm 6 mps 740 mmHg 68%
19:00 +2°C° 0.1 mm 5 mps 740 mmHg 77%
20:00 +1°C° 0.1 mm 5 mps 740 mmHg 86%
21:00 0°C° 0 mm 5 mps 740 mmHg 88%
22:00 0°C° 0 mm 5 mps 740 mmHg 91%
23:00 0°C° 0 mm 5 mps 740 mmHg 93%

23 April, Friday

Time Temperature Precipitation Wind Pressure Humidity
00:00 -1°C° 0 mm 5 mps 740 mmHg 91%
01:00 -1°C° 0 mm 5 mps 740 mmHg 90%
02:00 -1°C° 0 mm 5 mps 739 mmHg 89%
03:00 -1°C° 0 mm 5 mps 739 mmHg 90%
04:00 -1°C° 0 mm 5 mps 739 mmHg 91%
05:00 -1°C° 0 mm 5 mps 739 mmHg 93%
06:00 -1°C° 0.1 mm 5 mps 740 mmHg 92%
07:00 -1°C° 0.1 mm 5 mps 740 mmHg 91%
08:00 0°C° 0.1 mm 5 mps 740 mmHg 90%
09:00 0°C° 0.1 mm 5 mps 740 mmHg 90%
10:00 -1°C° 0.1 mm 6 mps 741 mmHg 90%
11:00 +1°C° 0.1 mm 6 mps 741 mmHg 89%
12:00 +1°C° 0.2 mm 6 mps 741 mmHg 85%
13:00 +2°C° 0.2 mm 6 mps 742 mmHg 81%
14:00 +2°C° 0.2 mm 6 mps 742 mmHg 77%
15:00 +2°C° 0.2 mm 6 mps 742 mmHg 75%
16:00 +2°C° 0.2 mm 6 mps 743 mmHg 73%
17:00 +2°C° 0.2 mm 6 mps 743 mmHg 71%
18:00 +1°C° 0 mm 6 mps 743 mmHg 75%
19:00 -1°C° 0 mm 6 mps 744 mmHg 80%
20:00 -1°C° 0 mm 5 mps 744 mmHg 84%
21:00 -1°C° 0 mm 5 mps 744 mmHg 85%
22:00 -2°C° 0 mm 5 mps 744 mmHg 87%
23:00 -2°C° 0 mm 4 mps 744 mmHg 88%

24 April, Saturday

Time Temperature Precipitation Wind Pressure Humidity
00:00 -2°C° 0 mm 4 mps 744 mmHg 88%
01:00 -2°C° 0 mm 4 mps 744 mmHg 88%
02:00 -2°C° 0 mm 5 mps 743 mmHg 88%
03:00 -2°C° 0.1 mm 5 mps 743 mmHg 90%
04:00 -2°C° 0.1 mm 5 mps 743 mmHg 93%
05:00 -2°C° 0.1 mm 5 mps 743 mmHg 95%
06:00 -2°C° 0.2 mm 5 mps 743 mmHg 95%
07:00 -1°C° 0.2 mm 5 mps 743 mmHg 95%
08:00 -1°C° 0.2 mm 5 mps 743 mmHg 95%
09:00 +1°C° 0.1 mm 6 mps 743 mmHg 83%
10:00 +2°C° 0.1 mm 6 mps 744 mmHg 71%
11:00 +3°C° 0.1 mm 7 mps 744 mmHg 59%
12:00 +4°C° 0.1 mm 7 mps 744 mmHg 55%
13:00 +4°C° 0.1 mm 7 mps 744 mmHg 51%
14:00 +5°C° 0.1 mm 7 mps 744 mmHg 46%
15:00 +4°C° 0.1 mm 7 mps 744 mmHg 49%
16:00 +4°C° 0.1 mm 7 mps 744 mmHg 51%
17:00 +3°C° 0.1 mm 6 mps 744 mmHg 54%
18:00 +2°C° 0 mm 6 mps 744 mmHg 60%
19:00 0°C° 0 mm 5 mps 744 mmHg 66%
20:00 -1°C° 0 mm 4 mps 744 mmHg 72%
21:00 -2°C° 0 mm 4 mps 744 mmHg 78%
22:00 -3°C° 0 mm 4 mps 744 mmHg 83%
23:00 -3°C° 0 mm 4 mps 744 mmHg 89%

25 April, Sunday

Time Temperature Precipitation Wind Pressure Humidity
00:00 -4°C° 0 mm 5 mps 744 mmHg 90%
01:00 -4°C° 0 mm 5 mps 743 mmHg 92%
02:00 -4°C° 0 mm 5 mps 743 mmHg 93%
03:00 -2°C° 0.1 mm 5 mps 743 mmHg 93%
04:00 -3°C° 0.1 mm 6 mps 743 mmHg 92%
05:00 -3°C° 0.1 mm 6 mps 743 mmHg 92%
06:00 -2°C° 0.1 mm 6 mps 743 mmHg 87%
07:00 -2°C° 0.1 mm 7 mps 743 mmHg 83%
08:00 -1°C° 0.1 mm 7 mps 743 mmHg 79%
09:00 0°C° 0.2 mm 7 mps 743 mmHg 74%
10:00 0°C° 0.2 mm 7 mps 743 mmHg 70%
11:00 +1°C° 0.2 mm 8 mps 743 mmHg 66%
12:00 +1°C° 0.2 mm 8 mps 743 mmHg 64%
13:00 +1°C° 0.2 mm 8 mps 743 mmHg 62%
14:00 +1°C° 0.2 mm 8 mps 743 mmHg 59%
15:00 +1°C° 0.1 mm 8 mps 743 mmHg 60%
16:00 +2°C° 0.1 mm 7 mps 743 mmHg 60%
17:00 +2°C° 0.1 mm 7 mps 743 mmHg 61%
18:00 +1°C° 0 mm 6 mps 743 mmHg 66%
19:00 -1°C° 0 mm 6 mps 743 mmHg 70%
20:00 -1°C° 0 mm 5 mps 743 mmHg 75%
21:00 -2°C° 0 mm 5 mps 743 mmHg 81%
22:00 -2°C° 0 mm 5 mps 743 mmHg 87%
23:00 -2°C° 0 mm 4 mps 743 mmHg 92%
Show more

We Need Your Consent

Meteoprog and our Service Providers may store and access personal data such as cookies, device identifiers or other similar technologies on your device and process such data to personalise content and ads, as well as provide social media features and to analyse the traffic.

  • Store and/or access information on your device

    Cookies, device identifiers or other information can be stored or accessed on your device for the purposes indicated above.

  • Personalised ads and content, ad and content measurement, audience insights, and products development

    Ads and content can be personalised based on a profile. More data can be added to better personalise ads and content. Ad and content performance can be measured. Insights about the audience who saw the ads and content can be derived. Such data can be used to develop or improve user’s experience, systems and software.

By clicking ‘I Agree’ you will allow the use of indicated cookies, device identifiers, web beacons or other similar technologies. Your settings can be changed in the browser on your device.

For certain purposes, legitimate interests may be relied on, rather than consent. You can read more about this in our Privacy and Cookie Policy.